Location: Lobali
(15.1757°N, 12.7962°W)
Time: 01:18:26
(UTC+00:00)

Daily predictions for brighter satellites

Satellite Brightness Start Highest point End
(mag) Time Altitude Azimuth Time Altitude Azimuth Time Altitude Azimuth
Atlas Centaur 2 4.4 04:26:40 18° NNE 04:26:40 18° NNE 04:28:21 10° NE
SL-16 R/B 3.5 04:24:50 36° ESE 04:24:50 36° ESE 04:28:33 10° SE
SEDSat Delta rocket 4.4 04:47:15 40° E 04:47:15 40° E 04:50:21 10° ENE
CZ-3 R/B 4.0 04:31:55 44° WNW 04:46:41 90° SSW 04:57:39 10° ESE
ADEOS Rocket 3.2 04:46:47 10° SSE 04:52:32 67° ENE 04:54:40 42° N
Cosmos 1709 Rocket 4.1 04:50:53 10° S 04:57:10 74° E 05:03:31 10° N
EPKM 4.1 04:58:36 58° NW 05:00:19 83° NNE 05:31:18 10° ESE
Meteor 2-3 Rocket 4.1 04:59:06 10° S 05:04:40 62° E 05:10:18 10° NNE
Ariane V96 H10-3 4.3 05:06:24 35° SSW 05:07:14 39° SSE 05:17:43 10° E
FENGYUN 3A 3.6 05:03:18 10° NNE 05:08:41 82° ESE 05:14:03 10° S
Cosmos 389 Rocket 3.9 05:12:12 36° SE 05:12:12 36° SE 05:14:30 10° SSE
Cosmos 1606 3.6 05:14:17 40° NE 05:14:58 45° E 05:18:34 10° SSE
Cosmos 773 Rocket 4.1 05:14:56 34° N 05:17:11 71° ENE 05:22:21 10° SSE
USA 276 3.7 05:18:41 34° ESE 05:18:41 34° ESE 05:20:42 10° SE
CZ-3A R/B 3.7 05:18:53 21° NNE 05:18:53 21° NNE 05:23:24 10° ENE
Centaur AC-64 2.8 05:22:09 46° NNE 05:22:09 46° NNE 05:27:18 10° ENE
USA 215 4.4 05:19:45 10° S 05:24:48 24° SW 05:24:57 24° WSW
Cosmos 990 Rocket 3.8 05:20:22 10° SSW 05:25:33 78° WNW 05:30:47 10° N
CZ-4B R/B 4.0 05:27:09 10° ESE 05:29:23 18° ENE 05:31:34 10° NNE
H-2A R/B 1.8 05:30:48 10° S 05:34:58 71° W 05:36:15 42° NNW
deb Chang Zheng 4 3.4 05:36:23 10° N 05:40:41 70° WNW 05:45:00 10° SSW
ALOS 2.6 05:40:46 38° WNW 05:40:57 39° WNW 05:45:16 10° SW
SL-8 R/B 3.9 05:44:54 35° WNW 05:46:37 54° SW 05:51:18 10° SSE
Meteor 2-17 Rocket 4.3 05:42:21 10° S 05:48:21 72° W 05:54:22 10° N
ERS-2 3.5 05:44:59 10° SE 05:48:22 38° ENE 05:51:45 10° N
METEOR-M 4.3 05:43:35 10° N 05:48:39 46° WNW 05:53:45 10° SSW
Meteor 1-31 Rocket 3.0 05:48:07 21° NNW 05:50:16 42° WNW 05:53:51 10° SSW
Cosmos 1844 Rocket 2.7 05:45:30 10° SSW 05:50:57 53° WNW 05:56:27 10° N
Delta 7925 Rocket 3.8 05:47:46 13° SW 05:51:49 57° SSE 05:56:52 10° ENE
Nadezhda 1 Rocket 4.5 05:48:25 19° NW 05:52:05 36° W 05:57:38 10° SSW
CZ-3B R/B 3.5 05:53:53 14° NE 05:53:53 14° NE 05:54:18 10° ENE
ATLAS 2A CENTAUR R/B 4.2 05:52:40 10° SSW 05:55:46 32° SE 06:04:42 10° ENE
Cosmos 1933 3.2 05:54:24 10° N 05:58:28 78° W 06:02:32 10° S
COSMOS 2455 2.8 05:52:57 10° SSW 05:58:58 87° WNW 06:05:00 10° NNE
CENTAUR R/B 3.6 05:50:54 10° NNW 05:59:40 73° ENE 06:08:22 10° SSE
Cosmos 1151 Rocket 3.1 05:56:44 10° N 06:01:01 80° E 06:05:19 10° S
Cosmos 1782 4.3 05:57:22 10° NNE 06:01:09 39° E 06:04:56 10° SSE
CRYOSAT 2 4.4 05:58:14 10° S 06:03:06 85° E 06:07:56 10° N
Cosmos 1844 3.8 05:59:33 10° SSW 06:04:54 50° WNW 06:10:16 10° N
Cosmos 1500 Rocket 3.6 06:00:46 10° S 06:05:03 80° E 06:09:21 10° N
SL-16 R/B 3.9 06:06:47 13° W 06:06:50 13° WSW 06:09:20 10° SW
SJ-12 4.3 06:03:49 10° N 06:07:35 39° WNW 06:11:23 10° SSW
USA 234 3.4 06:01:39 10° NNE 06:07:52 49° NW 06:14:06 10° WSW
Cosmos 372 Rocket 4.2 06:03:40 10° S 06:08:44 73° ESE 06:13:48 10° NNE
CZ-2C R/B 1.3 06:07:48 22° W 06:09:21 35° NNW 06:12:20 10° NE
Atlas Centaur 2 3.9 06:09:16 12° NW 06:12:49 18° N 06:16:39 10° NE
Meteor PRIRODA 4.0 06:15:23 10° N 06:18:54 40° WNW 06:22:23 10° SSW
Cosmos 1538 Rocket 4.4 06:14:56 10° NNW 06:19:53 42° W 06:24:46 10° S
Cosmos 1328 Rocket 3.6 06:16:53 10° NNW 06:21:15 62° W 06:25:38 10° S
ATLAS 5 CENTAUR R/B 1.2 06:18:20 10° SSW 06:22:17 84° WNW 06:26:15 10° NNE
H-2A R/B 2.6 06:19:29 10° N 06:23:20 74° WNW 06:27:07 10° SSW
GPS 2-17 Rocket1 4.0 06:19:06 10° SW 06:23:21 44° SSE 06:27:31 10° E
Sich 1 4.5 06:21:37 10° SSE 06:25:46 42° E 06:29:57 10° NNE
Meteor 1-4 Rocket 2.6 06:23:20 10° NNW 06:26:41 50° W 06:30:03 10° S
Cosmos 1743 Rocket 3.9 06:24:45 10° SSW 06:28:56 44° W 06:33:10 10° NNW
Okean O Rocket 4.0 06:25:49 10° NE 06:29:41 29° E 06:33:33 10° SSE
ATLAS 2A CENTAUR R/B 3.7 06:24:47 10° W 06:30:04 60° N 06:54:50 10° ENE
SEDSat Delta rocket 4.2 06:27:36 10° W 06:31:49 27° NNW 06:35:37 10° NE
COSMO-SKYMED 1 2.5 06:29:59 10° S 06:34:18 74° WSW 06:38:37 10° NNW
Intelsat 5-1 Rocket 2.4 06:32:00 10° W 06:35:09 58° N 06:42:34 10° ENE
Delta 2 Rocket 3.8 06:29:08 10° WSW 06:35:22 76° NNW 06:41:22 10° ENE
APEX 4.5 06:32:50 10° SW 06:37:30 41° WNW 06:43:13 10° N
